Location: ?
(35.4064°N, 139.3593°E)
Time: 01:54:00
(UTC+00:00)

Cosmos 1484 Rocket - Visible Passes

Search period start: 19 July 2024 00:00
Search period end: 29 July 2024 00:00
Orbit: 478 x 521 km, 97.6° (Epoch: 18 July)

Date Brightness Start Highest point End Pass type
(mag) Time Alt. Az. Time Alt. Az. Time Alt. Az.
19 Jul 5.6 18:13:12 10° ENE 18:14:38 12° E 18:16:03 10° ESE visible
21 Jul 2.9 19:05:18 10° NNE 19:08:53 67° ESE 19:12:23 10° S visible
22 Jul 4.2 18:45:42 10° NNE 18:48:59 33° E 18:52:13 10° SSE visible
23 Jul 5.2 18:26:29 10° NE 18:29:01 18° E 18:31:32 10° SE visible
26 Jul 3.3 18:59:33 10° NNE 19:03:03 53° E 19:06:31 10° S visible
27 Jul 4.6 18:39:58 10° NE 18:43:02 27° E 18:46:06 10° SSE visible
28 Jul 5.4 18:20:51 10° ENE 18:22:58 15° E 18:25:03 10° SE visible
